GW6810 Weather Reports


Display with metric or nautical units.
time (UTC)temp
F
wind
direction
speed
MPH
gust
MPH
rain 1hr
in
rain 24hr
in
rain mn
in
humidity
%
barometer
mb
20260503224011 61 12 5.0 11.0 0.00 0.00 0.00 34 1015.8
20260503223512 61 321 7.0 12.0 0.00 0.00 0.00 33 1015.8
20260503223028 61 307 7.0 12.0 0.00 0.00 0.00 35 1015.8
20260503222512 61 315 5.0 12.0 0.00 0.00 0.00 34 1015.8
20260503222012 62 309 5.0 11.0 0.00 0.00 0.00 33 1015.8
20260503221532 61 334 8.0 11.0 0.00 0.00 0.00 33 1015.8
20260503221011 61 325 7.0 13.0 0.00 0.00 0.00 33 1015.9
20260503220512 61 5 7.0 13.0 0.00 0.00 0.00 33 1015.8
20260503220034 62 309 4.0 12.0 0.00 0.00 0.00 33 1015.7
20260503215510 62 312 2.0 12.0 0.00 0.00 0.00 32 1015.6
20260503215011 61 331 7.0 13.0 0.00 0.00 0.00 32 1015.8
20260503214536 62 314 7.0 15.0 0.00 0.00 0.00 34 1015.8
20260503214009 61 306 5.0 15.0 0.00 0.00 0.00 33 1015.8
20260503213512 61 325 9.0 15.0 0.00 0.00 0.00 32 1015.8
20260503213033 61 309 4.0 12.0 0.00 0.00 0.00 34 1015.8
20260503212511 61 302 6.0 13.0 0.00 0.00 0.00 33 1015.8
20260503212015 61 331 7.0 13.0 0.00 0.00 0.00 33 1015.8
20260503211528 61 309 9.0 13.0 0.00 0.00 0.00 32 1015.8
20260503211010 61 335 7.0 16.0 0.00 0.00 0.00 34 1015.8
20260503210510 61 327 9.0 16.0 0.00 0.00 0.00 32 1015.6
20260503210027 61 329 7.0 12.0 0.00 0.00 0.00 33 1015.7
20260503205517 61 0 6.0 12.0 0.00 0.00 0.00 33 1015.8
20260503205013 61 310 8.0 13.0 0.00 0.00 0.00 33 1015.8
20260503204530 61 316 7.0 13.0 0.00 0.00 0.00 33 1015.7
20260503204009 61 328 7.0 15.0 0.00 0.00 0.00 34 1015.5
20260503203513 61 325 5.0 15.0 0.00 0.00 0.00 33 1015.6
20260503203029 61 338 8.0 14.0 0.00 0.00 0.00 32 1015.7
20260503202516 61 327 6.0 12.0 0.00 0.00 0.00 34 1015.7
20260503202013 60 313 5.0 16.0 0.00 0.00 0.00 34 1015.7
20260503201528 60 22 9.0 16.0 0.00 0.00 0.00 33 1015.8
20260503201025 60 300 8.0 17.0 0.00 0.00 0.00 34 1015.8
20260503200513 60 329 11.0 17.0 0.00 0.00 0.00 34 1015.8
20260503200028 60 348 8.0 19.0 0.00 0.00 0.00 33 1015.9
20260503195513 59 291 9.0 19.0 0.00 0.00 0.00 35 1015.9
20260503195013 60 316 14.0 19.0 0.00 0.00 0.00 35 1015.8
20260503194534 60 333 9.0 16.0 0.00 0.00 0.00 33 1016.0
20260503194014 60 15 9.0 16.0 0.00 0.00 0.00 36 1016.0
20260503193512 60 309 8.0 14.0 0.00 0.00 0.00 36 1016.2
20260503193030 59 314 8.0 17.0 0.00 0.00 0.00 36 1016.2
20260503192514 59 304 7.0 17.0 0.00 0.00 0.00 37 1016.4
20260503192013 59 334 9.0 17.0 0.00 0.00 0.00 37 1016.4
20260503191531 59 327 10.0 17.0 0.00 0.00 0.00 36 1016.5
20260503191014 59 289 8.0 16.0 0.00 0.00 0.00 38 1016.6
20260503190513 58 333 10.0 17.0 0.00 0.00 0.00 36 1016.6
20260503190038 58 327 10.0 17.0 0.00 0.00 0.00 38 1016.8
20260503185514 58 288 11.0 17.0 0.00 0.00 0.00 38 1016.7
20260503185016 58 321 10.0 17.0 0.00 0.00 0.00 39 1016.8
20260503184530 58 327 10.0 17.0 0.00 0.00 0.00 39 1016.9
20260503184014 58 302 10.0 18.0 0.00 0.00 0.00 39 1016.9
20260503183512 58 302 8.0 20.0 0.00 0.00 0.00 37 1016.8
20260503183036 58 317 12.0 20.0 0.00 0.00 0.00 38 1016.9
20260503182513 58 300 9.0 17.0 0.00 0.00 0.00 40 1017.1
20260503182011 58 297 9.0 16.0 0.00 0.00 0.00 39 1017.0
20260503181549 57 314 9.0 16.0 0.00 0.00 0.00 42 1016.9
20260503181014 57 329 11.0 16.0 0.00 0.00 0.00 39 1016.9
20260503180513 57 251 8.0 17.0 0.00 0.00 0.00 40 1017.1
20260503180041 57 317 10.0 17.0 0.00 0.00 0.00 41 1017.0
20260503175516 57 326 11.0 19.0 0.00 0.00 0.00 39 1016.9
20260503175010 57 340 9.0 21.0 0.00 0.00 0.00 40 1016.8
20260503174529 56 304 13.0 21.0 0.00 0.00 0.00 41 1016.9
20260503174015 57 340 7.0 21.0 0.00 0.00 0.00 39 1017.0
20260503173511 57 34 12.0 21.0 0.00 0.00 0.00 41 1017.1
20260503173031 56 18 12.0 18.0 0.00 0.00 0.00 41 1017.3
20260503172511 57 333 9.0 21.0 0.00 0.00 0.00 43 1017.1
20260503172011 56 311 12.0 21.0 0.00 0.00 0.00 41 1017.1
20260503171530 56 272 12.0 23.0 0.00 0.00 0.00 44 1017.2
20260503171014 55 316 9.0 23.0 0.00 0.00 0.00 43 1017.3
20260503170512 55 348 13.0 23.0 0.00 0.00 0.00 42 1017.3
20260503151008 53 319 15.0 28.0 0.00 0.01 0.00 45 1017.8
20260503150510 53 300 16.0 25.0 0.00 0.01 0.00 45 1017.9
20260503131010 51 340 13.0 25.0 0.00 0.01 0.00 49 1017.4
20260503130510 51 350 14.0 25.0 0.00 0.01 0.00 48 1017.3
20260503110521 51 298 12.0 25.0 0.00 0.01 0.00 49 1015.8
20260503090512 53 316 5.0 14.0 0.00 0.01 0.00 61 1013.7
20260503081529 54 344 7.0 14.0 0.00 0.01 0.00 60 1013.1
20260503081014 54 341 7.0 16.0 0.00 0.01 0.00 60 1013.0
20260503080511 54 5 8.0 16.0 0.00 0.01 0.00 59 1012.9
20260503072512 54 327 6.0 12.0 0.00 0.01 0.00 61 1012.4
20260503072013 54 335 3.0 11.0 0.00 0.01 0.00 66 1012.4
20260503071527 53 323 3.0 11.0 0.00 0.01 0.00 67 1012.3
20260503071012 53 322 5.0 11.0 0.00 0.01 0.00 69 1012.2
20260503070511 53 323 3.0 9.0 0.00 0.01 0.00 71 1012.2
20260503055011 55 318 5.0 11.0 0.00 0.01 0.00 60 1011.7
20260503054537 55 329 5.0 11.0 0.00 0.01 0.00 59 1011.7
20260503054012 55 311 4.0 9.0 0.00 0.01 0.00 59 1011.8
20260503053512 55 311 3.0 10.0 0.00 0.01 0.00 59 1011.8
20260503053030 55 328 3.0 10.0 0.00 0.01 0.00 59 1011.9
20260503052510 55 10 4.0 8.0 0.00 0.01 0.00 57 1011.9
20260503052012 55 336 4.0 8.0 0.00 0.01 0.00 57 1012.0
20260503051527 55 329 4.0 9.0 0.00 0.01 0.00 56 1012.0
20260503051012 55 329 4.0 9.0 0.00 0.01 0.00 57 1012.1
20260503050513 55 329 4.0 10.0 0.00 0.01 0.00 57 1012.0
20260503050030 55 346 5.0 10.0 0.00 0.01 0.00 57 1011.9
20260503045516 55 318 5.0 10.0 0.00 0.01 0.00 57 1012.0
20260503045012 56 341 4.0 10.0 0.00 0.01 0.00 56 1012.0
20260503044531 56 329 5.0 10.0 0.00 0.01 0.00 57 1012.0
20260503044012 56 333 6.0 10.0 0.00 0.01 0.00 56 1012.0
20260503043511 56 319 5.0 11.0 0.00 0.01 0.00 56 1012.1
20260503043030 56 338 7.0 11.0 0.00 0.01 0.00 55 1012.0
20260503042514 56 333 6.0 11.0 0.00 0.01 0.00 56 1012.1
20260503042010 56 292 5.0 9.0 0.00 0.01 0.00 55 1012.0
20260503041530 56 320 5.0 13.0 0.00 0.01 0.00 56 1012.1
20260503041009 56 360 5.0 13.0 0.00 0.01 0.00 54 1012.1
20260503040519 56 327 7.0 13.0 0.00 0.01 0.00 56 1012.1
20260503040032 56 19 7.0 11.0 0.00 0.01 0.00 55 1012.0
20260503035510 56 325 4.0 9.0 0.00 0.01 0.01 56 1012.2
20260503035010 56 312 6.0 11.0 0.00 0.01 0.01 56 1012.1
20260503034528 56 306 5.0 11.0 0.00 0.01 0.01 59 1012.1
20260503034011 56 325 7.0 11.0 0.00 0.01 0.01 57 1012.2
20260503033511 56 315 3.0 10.0 0.00 0.01 0.01 61 1012.1
20260503033031 56 337 3.0 10.0 0.00 0.01 0.01 60 1012.1
20260503032513 56 332 4.0 7.0 0.00 0.01 0.01 59 1012.0
20260503032010 56 348 2.0 9.0 0.00 0.01 0.01 60 1011.9
20260503031531 56 342 3.0 9.0 0.00 0.01 0.01 60 1011.8
20260503031013 56 336 3.0 9.0 0.00 0.01 0.01 58 1011.7
20260503030511 56 39 3.0 10.0 0.00 0.01 0.01 59 1011.8
20260503030033 56 325 4.0 10.0 0.00 0.01 0.01 59 1011.9
20260503025510 56 351 5.0 9.0 0.00 0.01 0.01 59 1011.9
20260503025010 56 11 4.0 9.0 0.00 0.01 0.01 58 1012.1
20260503024531 56 38 5.0 9.0 0.00 0.01 0.01 59 1012.1
20260503024010 56 336 4.0 9.0 0.00 0.01 0.01 58 1012.1
20260503023512 56 314 4.0 9.0 0.00 0.01 0.01 58 1012.2
20260503023029 56 317 3.0 8.0 0.00 0.01 0.01 58 1012.2
20260503022512 56 314 4.0 8.0 0.00 0.01 0.01 57 1012.1
20260503022012 56 34 3.0 8.0 0.00 0.01 0.01 57 1012.1
20260503021528 56 319 4.0 9.0 0.00 0.01 0.01 59 1012.0
20260503021014 56 326 4.0 13.0 0.00 0.01 0.01 56 1012.1
20260503020512 56 313 7.0 13.0 0.00 0.01 0.01 56 1012.1
20260503020030 56 5 5.0 10.0 0.00 0.01 0.01 55 1012.1
20260503015514 56 324 4.0 10.0 0.00 0.01 0.01 57 1012.1
20260503015010 56 331 5.0 10.0 0.00 0.01 0.01 55 1012.1
20260503014531 56 346 5.0 9.0 0.00 0.01 0.01 56 1012.1
20260503014013 56 360 5.0 9.0 0.00 0.01 0.01 55 1012.1
20260503013512 56 325 5.0 9.0 0.00 0.01 0.01 55 1012.0
20260503013029 56 32 3.0 9.0 0.00 0.01 0.01 56 1012.0
20260503012512 56 326 4.0 9.0 0.00 0.01 0.01 54 1011.8
20260503012013 56 332 3.0 10.0 0.00 0.01 0.01 54 1011.8
20260503011534 56 48 4.0 10.0 0.00 0.01 0.01 54 1011.6
20260503011016 56 350 6.0 10.0 0.00 0.01 0.01 53 1011.5
20260503010511 56 64 3.0 10.0 0.00 0.01 0.01 54 1011.6
20260503010033 56 335 4.0 9.0 0.00 0.01 0.01 53 1011.7
20260503005512 56 9 4.0 9.0 0.00 0.01 0.01 53 1011.8
20260503005014 56 329 4.0 10.0 0.00 0.01 0.01 53 1011.7
20260503004529 56 344 3.0 10.0 0.00 0.01 0.01 53 1011.6
20260503004013 56 347 5.0 10.0 0.00 0.01 0.01 53 1011.5
20260503003513 56 24 4.0 10.0 0.00 0.01 0.01 55 1011.4
20260503003028 56 37 4.0 11.0 0.00 0.01 0.01 56 1011.4
20260503002510 56 15 3.0 11.0 0.00 0.01 0.01 56 1011.5
20260503002012 56 57 6.0 12.0 0.00 0.01 0.01 55 1011.3
20260503001530 56 351 3.0 13.0 0.00 0.01 0.01 55 1011.2
20260503001012 56 28 6.0 16.0 0.00 0.01 0.01 55 1011.1
20260503000514 56 36 7.0 16.0 0.00 0.01 0.01 53 1011.1
20260503000031 56 31 5.0 15.0 0.00 0.01 0.01 52 1011.1
20260502235510 56 43 6.0 15.0 0.00 0.01 0.01 51 1011.1
20260502235012 56 106 7.0 14.0 0.00 0.01 0.01 50 1011.1
20260502234536 56 48 7.0 13.0 0.00 0.01 0.01 49 1011.0
20260502234011 56 323 6.0 13.0 0.00 0.01 0.01 47 1011.1
20260502233512 56 360 4.0 15.0 0.00 0.01 0.01 47 1011.2
20260502233030 56 23 5.0 15.0 0.00 0.01 0.01 45 1011.0
20260502232513 56 348 5.0 14.0 0.00 0.01 0.01 44 1010.9
20260502232012 56 346 5.0 17.0 0.00 0.01 0.01 43 1010.9
20260502231529 56 15 8.0 17.0 0.00 0.01 0.01 41 1010.8
20260502231011 56 38 9.0 17.0 0.00 0.01 0.01 42 1011.0
20260502230510 56 30 7.0 16.0 0.00 0.01 0.01 44 1011.0
20260502230030 56 40 8.0 14.0 0.00 0.01 0.01 43 1011.0
20260502225509 56 15 5.0 13.0 0.00 0.01 0.01 44 1011.0
20260502225009 56 9 6.0 13.0 0.00 0.01 0.01 46 1011.0
20260502224528 57 335 4.0 14.0 0.00 0.01 0.01 47 1011.1